DMSP 5D-2 F13 DEB, 40464

Orbit data source: Space-Track

DMSP 5D-2 F13 DEB, 40464 is space debris in SSO originally from a launch on Fri, 24 Mar 1995 UTC launched from the Air Force Western Test Range (AFWTR). Debris objects in space refer to the collection of defunct objects orbiting the Earth. Examples of debris include non-operational satellites, rocket bodies, and fragments generated from explosions, collisions, or faulty payload assembly.

Loading next visibility...
Identifier
40464, 1995-015BG
Orbit
SSO
Country
Flag of USUS
Related business
Manufacturer
Unknown
Mission
Spacecraft
Bus & Motor
Unknown
Mass
Unknown
Launch date (UTC)
1995-03-24 (31 years ago)
Launch vehicle
Unknown
Launch site
Air Force Western Test Range (AFWTR)
Object type
Payload
Rocket body
Debris
Shape & HBR
Unknown shape, 0.1 m
Radar Cross Section
Medium (>0.1 m² and <1 m²)

Expand to show TLE details & history
Last TLE update: 1 week ago

TLE from 1 week ago
0 DMSP 5D-2 F13 DEB
1 40464U 95015BG  26246.57841571  .00001644  00000-0  91603-3 0  9993
2 40464  98.9361 172.7690 0081673  45.7371 315.0464 14.10692409586682
Epoch: 2026-09-03T13:52Z
TLE epoch observation values (Epoch: 2026-09-03T13:52:55.117Z)
Latitude
-0.00003°
Longitude
-18.17523°
Altitude
818.315 km
Speed
7.465 km/s
True Right ascension
11h 31m 04s
True Declination
0° 00' 00"
Sunlit
Object was in daylight at epoch
Visualization orbit readout
Latitude
Unknown
Longitude
Unknown
Altitude
Unknown
Speed
Unknown
Apparent Right ascension
Unknown
Apparent Declination
Unknown
Sunlit
N/A
Visualization observer readout
Local Sidereal Time
14:36:36
Azimuth
Unknown
Elevation
Unknown
Doppler factor
Unknown
Orbital elements
Apogee altitude
913.254 km
Perigee altitude
795.116 km
Semi-major axis
7,232.322 km
Eccentricity
0.00817
Inclination
98.9361°
RAAN
172.769°
Arg. of periapsis
45.7371°
True anomaly
314.38036°
Mean anomaly
315.0464°
Eccentric anomaly
314.71386°
Mean motion
3.5288 °/min
Orbital period
102.02 mins
BSTAR
0.00091603

Documentation

Showing up to 5 results
|